Location: Wawayanda State Park
(41.1833°N, 74.4333°W)
Time: 01:46:37
(UTC-05:00)

RESURS DK-1 - Visible Passes

Search period start: 12 December 2017 00:00
Search period end: 22 December 2017 00:00
Orbit: 558 x 561 km, 69.9° (Epoch: 11 December)

Date Brightness Start Highest point End Pass type
(mag) Time Alt. Az. Time Alt. Az. Time Alt. Az.
12 Dec 5.1 04:16:25 15° NE 04:16:30 15° NE 04:18:53 10° E visible
12 Dec 2.5 05:52:21 21° NW 05:54:53 55° WSW 05:58:56 10° S visible
13 Dec 4.9 04:15:41 19° ENE 04:15:41 19° ENE 04:18:07 10° E visible
13 Dec 2.8 05:51:38 26° WNW 05:53:20 40° WSW 05:57:12 10° S visible
14 Dec 4.8 04:15:03 21° E 04:15:03 21° E 04:17:10 10° ESE visible
14 Dec 3.3 05:51:01 27° W 05:51:47 29° WSW 05:55:22 10° SSW visible
15 Dec 4.9 04:14:29 20° ESE 04:14:29 20° ESE 04:16:05 10° ESE visible
15 Dec 3.7 05:50:27 21° WSW 05:50:27 21° WSW 05:53:22 10° SSW visible
15 Dec 4.5 18:08:11 10° SSE 18:08:49 12° SE 18:08:49 12° SE visible
16 Dec 5.1 04:13:59 16° SE 04:13:59 16° SE 04:14:52 10° SE visible
16 Dec 4.4 05:49:57 14° SW 05:49:57 14° SW 05:51:07 10° SW visible
16 Dec 3.8 18:06:03 10° SSE 18:08:21 22° SE 18:08:21 22° SE visible
16 Dec 5.3 19:43:41 10° WSW 19:44:19 13° WSW 19:44:19 13° WSW visible
17 Dec 3.1 18:04:06 10° S 18:07:47 32° ESE 18:07:48 32° ESE visible
17 Dec 5.2 19:42:38 10° WSW 19:43:46 15° W 19:43:46 15° W visible
18 Dec 2.7 18:02:18 10° S 18:06:14 45° ESE 18:07:11 38° ENE visible
18 Dec 5.2 19:41:45 10° W 19:43:08 15° WNW 19:43:08 15° WNW visible
19 Dec 2.3 18:00:38 10° SSW 18:04:42 63° ESE 18:06:29 31° NE visible
19 Dec 5.3 19:41:06 10° W 19:42:26 13° WNW 19:42:26 13° WNW visible
20 Dec 2.3 17:59:04 10° SSW 18:03:11 87° ESE 18:05:42 23° NNE visible
20 Dec 5.5 19:41:07 10° WNW 19:41:39 10° NW 19:41:39 10° NW visible
21 Dec 2.6 17:57:36 10° SSW 18:01:42 68° WNW 18:04:51 17° NNE visible
